Terug naar catalogus

COSMOS 1086

ActiefMilitairLEO
NORAD 11301·PAYLOAD·🇷🇺 Russia

Gelanceerd Mar 15, 1979 vanaf Plesetsk Cosmodrome

Loading…

Volgende Passages (komende 24 uur)

TLE

VersSource: Space-Track

Epoch: Sep 14, 2026, 14:29 UTC

1 11301U 79024F   26257.60404300 -.00000003  00000-0  83704-4 0  9997
2 11301  74.0346 310.2218 0010985 223.3067 291.2641 12.47884691163808

Volg COSMOS 1086 in realtime met AllMySat

Download on the App Store